Volver al catálogo

STARLINK-3297

ActivoComunicacionesVLEO
NORAD 50159·PAYLOAD·🇺🇸 United States

Lanzado Dec 18, 2021 desde Vandenberg Space Force Base

Loading…

Próximos Pases (próximas 24 horas)

TLE

ActualizadoSource: CelesTrak SupGP

Época: Sep 15, 2026, 01:32 UTC

1 50159C 21125D   26258.06437500  .00054038  00000+0  16399-2 0  2586
2 50159  53.1565 117.4051 0001335  84.3436  83.1656 15.33518392    16

Sigue STARLINK-3297 en tiempo real con AllMySat

Download on the App Store